Regional Weather Roundup
Issued by NWS Goodland, KS

Home | Current Version | Previous Version | Graphics & Text | Print | Product List | Glossary On
Versions: 1 2 3 4 5 6 7 8 9 10 11 12 13 14 15 16 17 18 19 20 21 22 23 24 25 26 27 28 29 30 31 32 33 34 35 36 37 38 39 40 41 42 43 44 45 46 47 48 49 50
000
ASUS43 KGLD 222259
RWRGLD

GOODLAND FORECAST AREA HOURLY WEATHER ROUNDUP
NATIONAL WEATHER SERVICE GOODLAND KS
500 PM MDT TUE AUG 22 2017

...OFFICIAL OBSERVATIONS...

CITY           SKY/WX    TMP DP  RH WIND       PRES   REMARKS
GOODLAND KS    SUNNY     78  55  44 SE9       30.23F
HILL CITY KS   SUNNY     84  47  27 NE12      30.18F
IMPERIAL NEB   SUNNY     81  45  28 S12       30.21F
MCCOOK NEB     SUNNY     80  50  34 SE6       30.20F
AKRON CO       SUNNY     78  51  38 S17G25    30.24F
BURLINGTON CO  SUNNY     77  53  43 SE16      30.26F
LIMON CO       SUNNY     74  56  53 S16G23    30.29F
$$

...UNOFFICIAL OBSERVATIONS...

CITY           SKY/WX    TMP DP  RH WIND       PRES   REMARKS
LENORA KS        N/A     79  32  18 CALM        N/A
NORTON KS      SUNNY     81  41  24 E6        30.20S
TRENTON NEB      N/A     81  32  17 SE7         N/A
KIT CARSON CO    N/A     77  55  46 CALM        N/A
YUMA CO        FAIR      75  46  35 S15       30.22F
$$



USA.gov is the U.S. government's official web portal to all federal, state and local government web resources and services.